Troy, AL

1:22 PM CDT on July 22, 2017 (GMT -0500)
Troy Municipal

Weather History for KTOI - December, 2012

Change the Weather History Date:

Friday, December 7, 2012

  Actual Average Record
Temperature  
Mean Temperature 58 °F 50 °F  
Max Temperature 66 °F 62 °F 75 °F (1998)
Min Temperature 49 °F 38 °F 20 °F (2010)
Degree Days  
Heating Degree Days 7 15  
Month to date heating degree days 39 102  
Since 1 July heating degree days 507 495  
Growing Degree Days 7 (Base 50)    
Moisture  
Dew Point 53 °F    
Average Humidity 84    
Maximum Humidity 100    
Minimum Humidity 67    
Precipitation  
Precipitation 0.00 in 0.18 in 0.16 in (2013)
Month to date precipitation 0.00 1.22  
Year to date precipitation 51.25 51.00  
Snow  
Snow 0.00 in - - ()
Month to date snowfall 0.0  
Since 1 July snowfall 0.0  
Snow Depth 0.00 in    
Sea Level Pressure  
Sea Level Pressure 30.01 in    
Wind  
Wind Speed 4 mph (ESE)    
Max Wind Speed 10 mph    
Max Gust Speed 15 mph    
Visibility 5 miles    
Events Fog    
T = Trace of Precipitation, MM = Missing Value Source: NWS Daily Summary

Daily Weather History Graph

Daily Weather History Graph

Search for Another Location

Airport or City:

Trip Planner

Search our weather history database for the weather conditions in past years. The results will help you decide how hot, cold, wet, or windy it might be!

Date:

Astronomy

Dec. 07, 2012 Rise Set
Actual Time 6:31 AM CST 4:39 PM CST
Civil Twilight 6:04 AM CST 5:06 PM CST
Nautical Twilight 5:34 AM CST 5:37 PM CST
Astronomical Twilight 5:04 AM CST 6:06 PM CST
Moon 12:10 AM CST (12/7) 12:18 PM CST (12/7)
Length of Visible Light 11h 02m
Length of Day
10h 08m
Last Quarter, 38% of the Moon is Illuminated
Dec 7
Last Quarter
Dec 13
New
Dec 19
First Quarter
Dec 28
Full
Jan 4
Last Quarter

Hourly Weather History & Observations

Time (CST) Temp. Dew Point Humidity Pressure Visibility Wind Dir Wind Speed Gust Speed Precip Events Conditions
12:53 AM 59.0 °F 55.0 °F 87% 30.03 in 5.0 mi East 4.6 mph - N/A   Overcast
1:53 AM 60.1 °F 55.9 °F 86% 30.03 in 5.0 mi East 3.5 mph - N/A   Overcast
2:53 AM 60.1 °F 55.9 °F 86% 30.02 in 5.0 mi East 5.8 mph - N/A   Overcast
3:53 AM 60.1 °F 55.9 °F 86% 30.01 in 5.0 mi ENE 5.8 mph - N/A   Overcast
4:53 AM 60.1 °F 55.0 °F 83% 30.01 in 5.0 mi East 6.9 mph - N/A   Haze
5:34 AM 59.0 °F 55.4 °F 88% 30.04 in 6.0 mi East 6.9 mph - N/A   Overcast
5:53 AM 59.0 °F 55.0 °F 87% 30.04 in 6.0 mi ENE 6.9 mph - N/A   Overcast
6:53 AM 57.9 °F 55.0 °F 90% 30.05 in 5.0 mi East 6.9 mph - N/A   Overcast
7:53 AM 57.9 °F 54.0 °F 87% 30.06 in 4.0 mi East 5.8 mph - N/A   Overcast
8:41 AM 57.2 °F 53.6 °F 88% 30.08 in 5.0 mi East 8.1 mph - N/A   Overcast
8:53 AM 59.0 °F 54.0 °F 83% 30.07 in 5.0 mi East 5.8 mph - N/A   Haze
9:53 AM 60.1 °F 54.0 °F 80% 30.07 in 6.0 mi ESE 6.9 mph - N/A   Haze
10:06 AM 59.0 °F 53.6 °F 82% 30.07 in 6.0 mi SE 4.6 mph - N/A   Haze
10:53 AM 61.0 °F 54.0 °F 78% 30.05 in 6.0 mi SE 6.9 mph - N/A   Haze
11:53 AM 61.0 °F 54.0 °F 78% 30.02 in 7.0 mi ESE 4.6 mph - N/A   Overcast
12:46 PM 64.4 °F 55.4 °F 73% 30.00 in 8.0 mi SSE 8.1 mph - N/A   Overcast
12:53 PM 63.0 °F 54.0 °F 72% 29.99 in 8.0 mi ESE 6.9 mph - N/A   Overcast
1:53 PM 64.9 °F 54.0 °F 68% 29.97 in 6.0 mi SE 3.5 mph - N/A   Haze
2:12 PM 64.4 °F 53.6 °F 68% 29.98 in 6.0 mi Calm Calm - N/A   Haze
2:19 PM 64.4 °F 53.6 °F 68% 29.98 in 6.0 mi South 6.9 mph - N/A   Haze
2:29 PM 64.4 °F 55.4 °F 73% 29.98 in 6.0 mi South 4.6 mph - N/A   Haze
2:38 PM 64.4 °F 53.6 °F 68% 29.98 in 6.0 mi Calm Calm - N/A   Haze
2:51 PM 66.2 °F 55.4 °F 68% 29.98 in 6.0 mi Calm Calm - N/A   Haze
2:53 PM 66.0 °F 55.0 °F 68% 29.98 in 6.0 mi Calm Calm - N/A   Haze
3:53 PM 63.0 °F 55.0 °F 75% 29.98 in 7.0 mi South 5.8 mph - N/A   Overcast
4:53 PM 60.1 °F 55.0 °F 83% 29.98 in 7.0 mi Calm Calm - N/A   Scattered Clouds
5:53 PM 57.0 °F 54.0 °F 89% 29.99 in 6.0 mi Calm Calm - N/A   Clear
6:53 PM 55.0 °F 54.0 °F 96% 29.99 in 5.0 mi Calm Calm - N/A   Clear
7:53 PM 54.0 °F 51.1 °F 90% 30.00 in 4.0 mi Calm Calm - N/A   Clear
7:57 PM 53.6 °F 51.8 °F 94% 30.01 in 0.8 mi Calm Calm - N/A   Clear
8:04 PM 51.8 °F 51.8 °F 100% 30.01 in 0.2 mi Calm Calm - N/A Fog Fog
8:11 PM 51.8 °F 51.8 °F 100% 30.01 in 1.0 mi Calm Calm - N/A   Clear
8:13 PM 51.8 °F 51.8 °F 100% 30.01 in 2.5 mi Calm Calm - N/A   Clear
8:21 PM 53.6 °F 51.8 °F 94% 30.01 in 4.0 mi Calm Calm - N/A   Clear
8:53 PM 52.0 °F 50.0 °F 93% 30.00 in 4.0 mi Calm Calm - N/A   Clear
9:53 PM 48.9 °F 48.0 °F 97% 30.02 in 4.0 mi Calm Calm - N/A   Clear
10:01 PM 50.0 °F 48.2 °F 94% 30.02 in 4.0 mi Calm Calm - N/A   Scattered Clouds
10:07 PM 50.0 °F 48.2 °F 94% 30.02 in 4.0 mi Calm Calm - N/A   Mostly Cloudy
10:53 PM 54.0 °F 52.0 °F 93% 30.02 in 4.0 mi Calm Calm - N/A   Overcast
11:05 PM 53.6 °F 51.8 °F 94% 30.02 in 4.0 mi Calm Calm - N/A   Overcast
11:31 PM 53.6 °F 53.6 °F 100% 30.02 in 4.0 mi Calm Calm - N/A   Overcast
11:53 PM 55.0 °F 53.1 °F 93% 30.01 in 3.0 mi Calm Calm - N/A   Overcast